Time,TemperatureF,DewpointF,PressureIn,WindDirection,WindDirectionDegrees,WindSpeedMPH,WindSpeedGustMPH,Humidity,HourlyPrecipIn,Conditions,Clouds,dailyrainin,SoftwareType,DateUTC
2013-06-26 00:00:00,63.8,62.0,29.91,NNE,28,0.0,0.0,94,0.00,,,0.26,Wunderground v.1.15,2013-06-26 07:00:00,
2013-06-26 00:05:00,63.7,61.9,29.91,NE,54,0.0,1.0,94,0.00,,,0.00,Wunderground v.1.15,2013-06-26 07:05:00,
2013-06-26 00:15:00,63.7,61.9,29.91,NNW,337,1.0,1.0,94,0.00,,,0.00,Wunderground v.1.15,2013-06-26 07:15:00,
2013-06-26 00:20:00,63.7,61.9,29.91,NNE,26,1.0,1.0,94,0.00,,,0.00,Wunderground v.1.15,2013-06-26 07:20:00,
2013-06-26 00:25:00,63.7,61.9,29.91,NNW,330,1.0,1.0,94,0.00,,,0.00,Wunderground v.1.15,2013-06-26 07:25:00,
2013-06-26 00:35:00,63.6,61.8,29.91,NW,321,1.0,2.0,94,0.00,,,0.00,Wunderground v.1.15,2013-06-26 07:35:00,
2013-06-26 00:40:00,63.5,61.7,29.91,North,349,1.0,1.0,94,0.00,,,0.00,Wunderground v.1.15,2013-06-26 07:40:00,
2013-06-26 00:45:00,63.5,61.7,29.91,NE,39,0.0,2.0,94,0.00,,,0.00,Wunderground v.1.15,2013-06-26 07:45:00,
2013-06-26 00:50:00,63.5,61.7,29.91,NW,321,1.0,1.0,94,0.00,,,0.00,Wunderground v.1.15,2013-06-26 07:50:00,
2013-06-26 00:55:00,63.4,61.6,29.91,NW,319,1.0,1.0,94,0.00,,,0.00,Wunderground v.1.15,2013-06-26 07:55:00,
2013-06-26 01:00:00,63.4,61.6,29.91,NW,312,1.0,1.0,94,0.00,,,0.00,Wunderground v.1.15,2013-06-26 08:00:00,
2013-06-26 01:10:00,63.3,61.5,29.91,NNE,16,1.0,1.0,94,0.00,,,0.00,Wunderground v.1.15,2013-06-26 08:10:00,
2013-06-26 01:20:00,63.3,61.5,29.91,NNW,339,1.0,1.0,94,0.00,,,0.00,Wunderground v.1.15,2013-06-26 08:20:00,
2013-06-26 01:25:00,63.4,61.6,29.91,NW,319,1.0,1.0,94,0.00,,,0.00,Wunderground v.1.15,2013-06-26 08:25:00,
2013-06-26 01:30:00,63.5,61.7,29.91,ENE,58,1.0,1.0,94,0.00,,,0.00,Wunderground v.1.15,2013-06-26 08:30:00,
2013-06-26 01:35:00,63.5,61.7,29.91,NW,307,0.0,1.0,94,0.00,,,0.00,Wunderground v.1.15,2013-06-26 08:35:00,
2013-06-26 01:45:00,63.4,61.9,29.90,NW,307,0.0,0.0,95,0.00,,,0.00,Wunderground v.1.15,2013-06-26 08:45:00,
2013-06-26 01:50:00,63.3,61.8,29.91,NW,308,0.0,0.0,95,0.00,,,0.00,Wunderground v.1.15,2013-06-26 08:50:00,
2013-06-26 01:55:00,63.1,61.6,29.91,NW,308,0.0,0.0,95,0.00,,,0.00,Wunderground v.1.15,2013-06-26 08:55:00,
2013-06-26 02:00:00,63.0,61.5,29.91,NE,34,0.0,0.0,95,0.00,,,0.00,Wunderground v.1.15,2013-06-26 09:00:00,
2013-06-26 02:05:00,63.0,61.5,29.91,North,10,1.0,1.0,95,0.00,,,0.00,Wunderground v.1.15,2013-06-26 09:05:00,
2013-06-26 02:15:00,63.1,61.6,29.91,NW,321,1.0,1.0,95,0.00,,,0.00,Wunderground v.1.15,2013-06-26 09:15:00,
2013-06-26 02:20:00,63.1,61.6,29.91,NNW,341,1.0,2.0,95,0.00,,,0.00,Wunderground v.1.15,2013-06-26 09:20:00,
2013-06-26 02:25:00,63.1,61.6,29.91,NE,35,1.0,1.0,95,0.00,,,0.00,Wunderground v.1.15,2013-06-26 09:25:00,
2013-06-26 02:30:00,63.1,61.6,29.91,NE,44,0.0,1.0,95,0.00,,,0.00,Wunderground v.1.15,2013-06-26 09:30:00,
2013-06-26 02:35:00,63.1,61.6,29.91,NE,54,0.0,1.0,95,0.00,,,0.00,Wunderground v.1.15,2013-06-26 09:35:00,
2013-06-26 02:40:00,63.1,61.6,29.91,North,353,0.0,1.0,95,0.00,,,0.00,Wunderground v.1.15,2013-06-26 09:40:00,
2013-06-26 02:50:00,62.9,61.4,29.91,West,269,0.0,1.0,95,0.00,,,0.00,Wunderground v.1.15,2013-06-26 09:50:00,
2013-06-26 02:55:00,62.7,61.5,29.91,West,274,1.0,1.0,96,0.00,,,0.00,Wunderground v.1.15,2013-06-26 09:55:00,
2013-06-26 03:00:00,62.6,61.4,29.91,West,274,1.0,1.0,96,0.00,,,0.00,Wunderground v.1.15,2013-06-26 10:00:00,
2013-06-26 03:05:00,62.5,61.3,29.91,West,274,0.0,1.0,96,0.00,,,0.00,Wunderground v.1.15,2013-06-26 10:05:00,
2013-06-26 03:15:00,62.3,61.1,29.91,West,274,0.0,0.0,96,0.00,,,0.00,Wunderground v.1.15,2013-06-26 10:15:00,
2013-06-26 03:20:00,62.2,61.0,29.91,West,274,0.0,0.0,96,0.00,,,0.00,Wunderground v.1.15,2013-06-26 10:20:00,
2013-06-26 03:25:00,62.0,60.8,29.91,West,274,0.0,0.0,96,0.00,,,0.00,Wunderground v.1.15,2013-06-26 10:25:00,
2013-06-26 03:30:00,62.1,61.2,29.91,West,269,0.0,0.0,97,0.00,,,0.00,Wunderground v.1.15,2013-06-26 10:30:00,
2013-06-26 03:35:00,62.2,61.0,29.91,NW,321,0.0,1.0,96,0.00,,,0.00,Wunderground v.1.15,2013-06-26 10:35:00,
2013-06-26 03:40:00,62.3,61.1,29.91,NW,321,0.0,0.0,96,0.00,,,0.00,Wunderground v.1.15,2013-06-26 10:40:00,
2013-06-26 03:45:00,62.2,61.0,29.91,NNE,12,0.0,0.0,96,0.00,,,0.00,Wunderground v.1.15,2013-06-26 10:45:00,
2013-06-26 03:55:00,62.1,60.7,29.91,NNW,345,0.0,1.0,95,0.00,,,0.00,Wunderground v.1.15,2013-06-26 10:55:00,
2013-06-26 04:00:00,62.0,60.6,29.91,NW,319,0.0,0.0,95,0.00,,,0.00,Wunderground v.1.15,2013-06-26 11:00:00,
2013-06-26 04:05:00,62.1,60.7,29.91,WNW,292,0.0,0.0,95,0.00,,,0.00,Wunderground v.1.15,2013-06-26 11:05:00,
2013-06-26 04:15:00,61.7,60.3,29.91,SSE,155,0.0,0.0,95,0.00,,,0.00,Wunderground v.1.15,2013-06-26 11:15:00,
2013-06-26 04:20:00,61.6,60.4,29.91,SW,236,0.0,0.0,96,0.00,,,0.00,Wunderground v.1.15,2013-06-26 11:20:00,
2013-06-26 04:25:00,61.6,60.4,29.91,SW,236,0.0,0.0,96,0.00,,,0.00,Wunderground v.1.15,2013-06-26 11:25:00,
2013-06-26 04:30:00,61.7,60.5,29.91,West,281,0.0,0.0,96,0.00,,,0.00,Wunderground v.1.15,2013-06-26 11:30:00,
2013-06-26 04:35:00,61.9,60.7,29.91,SW,227,0.0,1.0,96,0.00,,,0.00,Wunderground v.1.15,2013-06-26 11:35:00,
2013-06-26 04:40:00,62.0,60.6,29.91,SW,220,0.0,1.0,95,0.00,,,0.00,Wunderground v.1.15,2013-06-26 11:40:00,
2013-06-26 04:45:00,61.9,60.5,29.91,SSW,207,0.0,0.0,95,0.00,,,0.00,Wunderground v.1.15,2013-06-26 11:45:00,
2013-06-26 04:50:00,62.0,60.8,29.92,WNW,298,0.0,0.0,96,0.00,,,0.00,Wunderground v.1.15,2013-06-26 11:50:00,
2013-06-26 05:00:00,62.2,60.8,29.92,WNW,297,1.0,1.0,95,0.00,,,0.00,Wunderground v.1.15,2013-06-26 12:00:00,
2013-06-26 05:05:00,62.2,60.8,29.92,WSW,249,1.0,2.0,95,0.00,,,0.00,Wunderground v.1.15,2013-06-26 12:05:00,
2013-06-26 05:15:00,62.1,60.7,29.92,WSW,245,1.0,1.0,95,0.00,,,0.00,Wunderground v.1.15,2013-06-26 12:15:00,
2013-06-26 05:20:00,62.0,60.6,29.92,SSW,213,1.0,1.0,95,0.00,,,0.00,Wunderground v.1.15,2013-06-26 12:20:00,
2013-06-26 05:25:00,62.0,60.6,29.92,WSW,248,1.0,3.0,95,0.00,,,0.00,Wunderground v.1.15,2013-06-26 12:25:00,
2013-06-26 05:35:00,62.1,60.7,29.92,West,271,1.0,3.0,95,0.00,,,0.00,Wunderground v.1.15,2013-06-26 12:35:00,
2013-06-26 05:40:00,62.2,60.8,29.92,West,280,2.0,3.0,95,0.00,,,0.00,Wunderground v.1.15,2013-06-26 12:40:00,
2013-06-26 05:45:00,62.1,60.7,29.93,West,271,2.0,2.0,95,0.00,,,0.00,Wunderground v.1.15,2013-06-26 12:45:00,
2013-06-26 05:50:00,62.0,60.8,29.93,West,259,1.0,2.0,96,0.00,,,0.00,Wunderground v.1.15,2013-06-26 12:50:00,
2013-06-26 05:55:00,61.9,60.7,29.93,SW,231,0.0,0.0,96,0.00,,,0.00,Wunderground v.1.15,2013-06-26 12:55:00,
2013-06-26 06:05:00,61.7,60.5,29.93,SW,231,0.0,0.0,96,0.00,,,0.00,Wunderground v.1.15,2013-06-26 13:05:00,
2013-06-26 06:10:00,61.6,60.4,29.93,SW,231,0.0,0.0,96,0.00,,,0.00,Wunderground v.1.15,2013-06-26 13:10:00,
2013-06-26 06:20:00,61.6,60.7,29.94,West,272,0.0,0.0,97,0.00,,,0.00,Wunderground v.1.15,2013-06-26 13:20:00,
2013-06-26 06:25:00,61.7,60.8,29.94,WNW,295,1.0,1.0,97,0.00,,,0.00,Wunderground v.1.15,2013-06-26 13:25:00,
2013-06-26 06:30:00,62.0,60.8,29.94,West,259,1.0,1.0,96,0.00,,,0.00,Wunderground v.1.15,2013-06-26 13:30:00,
2013-06-26 06:40:00,62.0,60.8,29.95,WNW,284,0.0,1.0,96,0.00,,,0.00,Wunderground v.1.15,2013-06-26 13:40:00,
2013-06-26 06:45:00,62.2,61.0,29.94,SSW,193,1.0,1.0,96,0.00,,,0.00,Wunderground v.1.15,2013-06-26 13:45:00,
2013-06-26 06:50:00,62.2,60.8,29.95,SSW,193,0.0,0.0,95,0.00,,,0.00,Wunderground v.1.15,2013-06-26 13:50:00,
2013-06-26 06:55:00,62.0,60.6,29.95,SSW,193,0.0,0.0,95,0.00,,,0.00,Wunderground v.1.15,2013-06-26 13:55:00,
2013-06-26 07:00:00,62.0,60.8,29.95,SSW,193,0.0,0.0,96,0.00,,,0.00,Wunderground v.1.15,2013-06-26 14:00:00,
2013-06-26 07:10:00,62.4,61.2,29.95,SW,224,0.0,0.0,96,0.00,,,0.00,Wunderground v.1.15,2013-06-26 14:10:00,
2013-06-26 07:20:00,63.0,61.8,29.95,SW,224,0.0,0.0,96,0.00,,,0.00,Wunderground v.1.15,2013-06-26 14:20:00,
2013-06-26 07:30:00,63.5,62.0,29.95,SW,224,0.0,0.0,95,0.00,,,0.00,Wunderground v.1.15,2013-06-26 14:30:00,
2013-06-26 07:35:00,63.6,62.1,29.95,SW,224,0.0,0.0,95,0.00,,,0.00,Wunderground v.1.15,2013-06-26 14:35:00,
2013-06-26 07:40:00,63.9,62.4,29.96,SW,224,0.0,0.0,95,0.00,,,0.00,Wunderground v.1.15,2013-06-26 14:40:00,
2013-06-26 07:45:00,64.1,62.6,29.96,SW,224,0.0,0.0,95,0.00,,,0.00,Wunderground v.1.15,2013-06-26 14:45:00,
2013-06-26 07:50:00,64.2,62.4,29.96,East,82,0.0,1.0,94,0.00,,,0.00,Wunderground v.1.15,2013-06-26 14:50:00,
2013-06-26 08:00:00,64.4,62.3,29.96,North,6,1.0,1.0,93,0.00,,,0.00,Wunderground v.1.15,2013-06-26 15:00:00,
2013-06-26 08:05:00,64.7,62.6,29.96,ENE,62,0.0,1.0,93,0.00,,,0.00,Wunderground v.1.15,2013-06-26 15:05:00,
2013-06-26 08:11:00,64.9,62.2,29.96,NW,304,1.0,1.0,91,0.00,,,0.00,Wunderground v.1.15,2013-06-26 15:11:00,
2013-06-26 08:20:00,65.6,62.9,29.96,SE,135,1.0,2.0,91,0.00,,,0.00,Wunderground v.1.15,2013-06-26 15:20:00,
2013-06-26 08:25:00,66.0,63.0,29.96,North,7,1.0,1.0,90,0.00,,,0.00,Wunderground v.1.15,2013-06-26 15:25:00,
2013-06-26 08:30:00,66.3,62.6,29.96,NE,52,2.0,2.0,88,0.00,,,0.00,Wunderground v.1.15,2013-06-26 15:30:00,
2013-06-26 08:40:00,67.1,63.1,29.96,SW,236,1.0,2.0,87,0.00,,,0.00,Wunderground v.1.15,2013-06-26 15:40:00,
2013-06-26 08:45:00,67.3,62.6,29.96,NNE,32,2.0,3.0,85,0.00,,,0.00,Wunderground v.1.15,2013-06-26 15:45:00,
2013-06-26 08:50:00,68.0,63.0,29.96,NE,36,1.0,3.0,84,0.00,,,0.00,Wunderground v.1.15,2013-06-26 15:50:00,
2013-06-26 08:55:00,68.4,63.4,29.96,NNE,30,1.0,2.0,84,0.00,,,0.00,Wunderground v.1.15,2013-06-26 15:55:00,
2013-06-26 09:00:00,68.9,63.5,29.97,WNW,302,1.0,2.0,83,0.00,,,0.00,Wunderground v.1.15,2013-06-26 16:00:00,
2013-06-26 09:10:00,69.6,63.9,29.96,SW,224,1.0,1.0,82,0.00,,,0.00,Wunderground v.1.15,2013-06-26 16:10:00,
2013-06-26 09:20:00,69.6,63.5,29.97,WNW,297,1.0,2.0,81,0.00,,,0.00,Wunderground v.1.15,2013-06-26 16:20:00,
2013-06-26 09:25:00,69.6,63.5,29.97,WSW,257,1.0,2.0,81,0.00,,,0.00,Wunderground v.1.15,2013-06-26 16:25:00,
2013-06-26 09:35:00,69.6,63.5,29.97,NNW,346,1.0,4.0,81,0.00,,,0.00,Wunderground v.1.15,2013-06-26 16:35:00,
2013-06-26 09:40:00,70.0,63.9,29.97,SSW,197,1.0,1.0,81,0.00,,,0.00,Wunderground v.1.15,2013-06-26 16:40:00,
2013-06-26 09:45:00,70.3,63.8,29.97,SW,232,1.0,1.0,80,0.00,,,0.00,Wunderground v.1.15,2013-06-26 16:45:00,
2013-06-26 09:50:00,70.3,63.5,29.97,SSW,207,2.0,2.0,79,0.00,,,0.00,Wunderground v.1.15,2013-06-26 16:50:00,
2013-06-26 09:55:00,70.5,63.7,29.97,WSW,251,2.0,2.0,79,0.00,,,0.00,Wunderground v.1.15,2013-06-26 16:55:00,
2013-06-26 10:00:00,70.5,63.7,29.97,SW,231,2.0,2.0,79,0.00,,,0.00,Wunderground v.1.15,2013-06-26 17:00:00,
2013-06-26 10:10:00,71.2,64.4,29.97,NE,36,2.0,3.0,79,0.00,,,0.00,Wunderground v.1.15,2013-06-26 17:10:00,
2013-06-26 10:20:00,70.9,63.7,29.97,WSW,239,3.0,5.0,78,0.00,,,0.00,Wunderground v.1.15,2013-06-26 17:20:00,
2013-06-26 10:25:00,70.9,63.7,29.97,West,265,3.0,5.0,78,0.00,,,0.00,Wunderground v.1.15,2013-06-26 17:25:00,
2013-06-26 10:30:00,70.9,63.7,29.97,SW,236,3.0,4.0,78,0.00,,,0.00,Wunderground v.1.15,2013-06-26 17:30:00,
2013-06-26 10:40:00,70.6,63.8,29.97,SW,228,3.0,3.0,79,0.00,,,0.00,Wunderground v.1.15,2013-06-26 17:40:00,
2013-06-26 10:45:00,71.1,64.3,29.97,SW,229,3.0,3.0,79,0.00,,,0.00,Wunderground v.1.15,2013-06-26 17:45:00,
2013-06-26 10:50:00,70.7,63.5,29.97,WSW,250,3.0,6.0,78,0.00,,,0.00,Wunderground v.1.15,2013-06-26 17:50:00,
2013-06-26 10:55:00,70.5,63.3,29.97,SW,225,4.0,7.0,78,0.00,,,0.00,Wunderground v.1.15,2013-06-26 17:55:00,
2013-06-26 11:01:00,70.7,63.5,29.97,West,278,4.0,4.0,78,0.00,,,0.00,Wunderground v.1.15,2013-06-26 18:01:00,
2013-06-26 11:11:00,71.9,64.3,29.97,WSW,257,3.0,9.0,77,0.00,,,0.00,Wunderground v.1.15,2013-06-26 18:11:00,
2013-06-26 11:20:00,72.3,64.3,29.97,WSW,243,3.0,9.0,76,0.00,,,0.00,Wunderground v.1.15,2013-06-26 18:20:00,
2013-06-26 11:25:00,72.0,64.0,29.97,SSE,153,4.0,4.0,76,0.00,,,0.00,Wunderground v.1.15,2013-06-26 18:25:00,
2013-06-26 11:30:00,71.9,63.9,29.97,SW,225,4.0,4.0,76,0.00,,,0.00,Wunderground v.1.15,2013-06-26 18:30:00,
2013-06-26 11:35:00,72.3,63.9,29.97,SSW,211,4.0,4.0,75,0.00,,,0.00,Wunderground v.1.15,2013-06-26 18:35:00,
2013-06-26 11:40:00,72.6,64.2,29.97,SW,235,4.0,6.0,75,0.00,,,0.00,Wunderground v.1.15,2013-06-26 18:40:00,
2013-06-26 11:45:00,73.1,64.7,29.97,SE,139,3.0,3.0,75,0.00,,,0.00,Wunderground v.1.15,2013-06-26 18:45:00,
2013-06-26 11:55:00,73.5,64.3,29.97,West,279,4.0,5.0,73,0.00,,,0.00,Wunderground v.1.15,2013-06-26 18:55:00,
2013-06-26 12:00:00,74.1,64.5,29.98,SSE,155,4.0,4.0,72,0.00,,,0.00,Wunderground v.1.15,2013-06-26 19:00:00,
2013-06-26 12:05:00,74.0,64.4,29.98,South,183,4.0,4.0,72,0.00,,,0.00,Wunderground v.1.15,2013-06-26 19:05:00,
2013-06-26 12:15:00,75.1,65.1,29.98,WSW,239,4.0,4.0,71,0.00,,,0.00,Wunderground v.1.15,2013-06-26 19:15:00,
2013-06-26 12:20:00,75.6,64.3,29.98,WSW,248,3.0,4.0,68,0.00,,,0.00,Wunderground v.1.15,2013-06-26 19:20:00,
2013-06-26 12:25:00,75.7,64.4,29.98,SSW,209,4.0,4.0,68,0.00,,,0.00,Wunderground v.1.15,2013-06-26 19:25:00,
2013-06-26 12:30:00,75.5,64.6,29.98,West,275,4.0,4.0,69,0.00,,,0.00,Wunderground v.1.15,2013-06-26 19:30:00,
2013-06-26 12:35:00,75.7,64.4,29.97,South,181,4.0,4.0,68,0.00,,,0.00,Wunderground v.1.15,2013-06-26 19:35:00,
2013-06-26 12:45:00,77.2,65.8,29.98,SW,221,3.0,6.0,68,0.00,,,0.00,Wunderground v.1.15,2013-06-26 19:45:00,
2013-06-26 12:50:00,76.1,63.9,29.98,WSW,255,3.0,6.0,66,0.00,,,0.00,Wunderground v.1.15,2013-06-26 19:50:00,
2013-06-26 12:55:00,75.8,64.1,29.97,West,268,4.0,12.0,67,0.00,,,0.00,Wunderground v.1.15,2013-06-26 19:55:00,
2013-06-26 13:00:00,75.6,63.9,29.97,WNW,294,4.0,5.0,67,0.00,,,0.00,Wunderground v.1.15,2013-06-26 20:00:00,
2013-06-26 13:05:00,75.8,63.6,29.97,SW,222,4.0,5.0,66,0.00,,,0.00,Wunderground v.1.15,2013-06-26 20:05:00,
2013-06-26 13:15:00,77.1,64.4,29.97,WSW,243,3.0,4.0,65,0.00,,,0.00,Wunderground v.1.15,2013-06-26 20:15:00,
2013-06-26 13:20:00,77.7,64.1,29.97,NW,306,3.0,3.0,63,0.00,,,0.00,Wunderground v.1.15,2013-06-26 20:20:00,
2013-06-26 13:25:00,77.7,63.6,29.97,West,281,4.0,4.0,62,0.00,,,0.00,Wunderground v.1.15,2013-06-26 20:25:00,
2013-06-26 13:35:00,78.3,64.2,29.97,NNW,333,4.0,5.0,62,0.00,,,0.00,Wunderground v.1.15,2013-06-26 20:35:00,
2013-06-26 13:40:00,79.0,63.9,29.96,WSW,250,3.0,3.0,60,0.00,,,0.00,Wunderground v.1.15,2013-06-26 20:40:00,
2013-06-26 13:45:00,78.5,63.5,29.97,WSW,238,3.0,3.0,60,0.00,,,0.00,Wunderground v.1.15,2013-06-26 20:45:00,
2013-06-26 13:50:00,78.5,63.9,29.96,SW,222,4.0,4.0,61,0.00,,,0.00,Wunderground v.1.15,2013-06-26 20:50:00,
2013-06-26 13:55:00,78.4,63.4,29.96,SW,227,4.0,4.0,60,0.00,,,0.00,Wunderground v.1.15,2013-06-26 20:55:00,
2013-06-26 14:00:00,79.0,63.9,29.96,SW,229,4.0,4.0,60,0.00,,,0.00,Wunderground v.1.15,2013-06-26 21:00:00,
2013-06-26 14:05:00,79.4,63.3,29.96,WNW,282,3.0,4.0,58,0.00,,,0.00,Wunderground v.1.15,2013-06-26 21:05:00,
2013-06-26 14:10:00,79.4,63.3,29.96,NW,326,3.0,3.0,58,0.00,,,0.00,Wunderground v.1.15,2013-06-26 21:10:00,
2013-06-26 14:20:00,79.7,63.6,29.96,SW,219,4.0,4.0,58,0.00,,,0.00,Wunderground v.1.15,2013-06-26 21:20:00,
2013-06-26 14:25:00,80.4,63.8,29.95,WSW,240,4.0,5.0,57,0.00,,,0.00,Wunderground v.1.15,2013-06-26 21:25:00,
2013-06-26 14:30:00,81.4,64.2,29.95,West,280,3.0,3.0,56,0.00,,,0.00,Wunderground v.1.15,2013-06-26 21:30:00,
2013-06-26 14:40:00,81.3,63.1,29.95,WSW,238,3.0,3.0,54,0.00,,,0.00,Wunderground v.1.15,2013-06-26 21:40:00,
2013-06-26 14:45:00,80.9,63.7,29.95,SW,220,4.0,4.0,56,0.00,,,0.00,Wunderground v.1.15,2013-06-26 21:45:00,
2013-06-26 14:50:00,81.4,63.7,29.95,South,174,3.0,3.0,55,0.00,,,0.00,Wunderground v.1.15,2013-06-26 21:50:00,
2013-06-26 14:55:00,81.2,64.0,29.94,South,178,3.0,3.0,56,0.00,,,0.00,Wunderground v.1.15,2013-06-26 21:55:00,
2013-06-26 15:00:00,81.1,62.9,29.94,SW,229,4.0,6.0,54,0.00,,,0.00,Wunderground v.1.15,2013-06-26 22:00:00,
2013-06-26 15:05:00,80.8,63.1,29.94,SW,231,4.0,6.0,55,0.00,,,0.00,Wunderground v.1.15,2013-06-26 22:05:00,
2013-06-26 15:10:00,80.6,62.4,29.94,SW,226,5.0,8.0,54,0.00,,,0.00,Wunderground v.1.15,2013-06-26 22:10:00,
2013-06-26 15:20:00,81.2,63.0,29.94,WNW,291,4.0,7.0,54,0.00,,,0.00,Wunderground v.1.15,2013-06-26 22:20:00,
2013-06-26 15:25:00,81.2,63.0,29.94,SW,234,4.0,7.0,54,0.00,,,0.00,Wunderground v.1.15,2013-06-26 22:25:00,
2013-06-26 15:30:00,81.4,63.2,29.94,South,183,5.0,5.0,54,0.00,,,0.00,Wunderground v.1.15,2013-06-26 22:30:00,
2013-06-26 15:40:00,81.7,62.4,29.93,West,266,4.0,4.0,52,0.00,,,0.00,Wunderground v.1.15,2013-06-26 22:40:00,
2013-06-26 15:45:00,81.9,61.4,29.93,WSW,242,5.0,9.0,50,0.00,,,0.00,Wunderground v.1.15,2013-06-26 22:45:00,
2013-06-26 15:50:00,81.7,61.8,29.93,South,188,5.0,5.0,51,0.00,,,0.00,Wunderground v.1.15,2013-06-26 22:50:00,
2013-06-26 15:55:00,81.8,62.5,29.93,WSW,247,5.0,7.0,52,0.00,,,0.00,Wunderground v.1.15,2013-06-26 22:55:00,
2013-06-26 16:05:00,82.3,62.9,29.92,WSW,250,4.0,5.0,52,0.00,,,0.00,Wunderground v.1.15,2013-06-26 23:05:00,
2013-06-26 16:10:00,82.7,63.3,29.92,West,269,4.0,5.0,52,0.00,,,0.00,Wunderground v.1.15,2013-06-26 23:10:00,
2013-06-26 16:20:00,82.4,62.5,29.92,North,352,4.0,6.0,51,0.00,,,0.00,Wunderground v.1.15,2013-06-26 23:20:00,
2013-06-26 16:25:00,82.4,62.5,29.92,SW,217,5.0,6.0,51,0.00,,,0.00,Wunderground v.1.15,2013-06-26 23:25:00,
2013-06-26 16:35:00,81.9,62.0,29.92,SW,217,5.0,7.0,51,0.00,,,0.00,Wunderground v.1.15,2013-06-26 23:35:00,
2013-06-26 16:40:00,82.4,62.5,29.92,NNE,19,5.0,5.0,51,0.00,,,0.00,Wunderground v.1.15,2013-06-26 23:40:00,
2013-06-26 16:45:00,82.8,62.8,29.92,NW,319,4.0,5.0,51,0.00,,,0.00,Wunderground v.1.15,2013-06-26 23:45:00,
2013-06-26 16:50:00,82.6,62.6,29.92,SW,231,5.0,5.0,51,0.00,,,0.00,Wunderground v.1.15,2013-06-26 23:50:00,
2013-06-26 16:55:00,82.6,62.6,29.92,NNW,328,4.0,5.0,51,0.00,,,0.00,Wunderground v.1.15,2013-06-26 23:55:00,
2013-06-26 17:00:00,83.1,62.5,29.92,ESE,117,4.0,4.0,50,0.00,,,0.00,Wunderground v.1.15,2013-06-27 00:00:00,
2013-06-26 17:05:00,82.9,62.9,29.92,South,184,4.0,4.0,51,0.00,,,0.00,Wunderground v.1.15,2013-06-27 00:05:00,
2013-06-26 17:15:00,83.0,62.4,29.91,West,266,3.0,6.0,50,0.00,,,0.00,Wunderground v.1.15,2013-06-27 00:15:00,
2013-06-26 17:20:00,83.3,62.7,29.92,WSW,241,4.0,4.0,50,0.00,,,0.00,Wunderground v.1.15,2013-06-27 00:20:00,
2013-06-26 17:25:00,83.5,62.9,29.91,West,261,3.0,4.0,50,0.00,,,0.00,Wunderground v.1.15,2013-06-27 00:25:00,
2013-06-26 17:30:00,83.3,62.7,29.91,North,6,3.0,3.0,50,0.00,,,0.00,Wunderground v.1.15,2013-06-27 00:30:00,
2013-06-26 17:35:00,83.0,63.0,29.91,SW,232,3.0,6.0,51,0.00,,,0.00,Wunderground v.1.15,2013-06-27 00:35:00,
2013-06-26 17:40:00,83.1,62.5,29.91,WSW,239,3.0,3.0,50,0.00,,,0.00,Wunderground v.1.15,2013-06-27 00:40:00,
2013-06-26 17:50:00,83.4,62.2,29.91,West,259,4.0,8.0,49,0.00,,,0.00,Wunderground v.1.15,2013-06-27 00:50:00,
2013-06-26 17:55:00,83.3,62.1,29.91,SSE,147,3.0,8.0,49,0.00,,,0.00,Wunderground v.1.15,2013-06-27 00:55:00,
2013-06-26 18:00:00,83.4,61.7,29.91,West,269,3.0,3.0,48,0.00,,,0.00,Wunderground v.1.15,2013-06-27 01:00:00,
2013-06-26 18:05:00,83.3,62.1,29.90,NE,41,3.0,3.0,49,0.00,,,0.00,Wunderground v.1.15,2013-06-27 01:05:00,
2013-06-26 18:15:00,83.4,62.8,29.90,SW,230,3.0,4.0,50,0.00,,,0.00,Wunderground v.1.15,2013-06-27 01:15:00,
2013-06-26 18:20:00,83.7,63.1,29.90,SW,216,2.0,4.0,50,0.00,,,0.00,Wunderground v.1.15,2013-06-27 01:20:00,
2013-06-26 18:25:00,83.2,62.6,29.90,South,191,3.0,4.0,50,0.00,,,0.00,Wunderground v.1.15,2013-06-27 01:25:00,
2013-06-26 18:30:00,83.8,62.6,29.90,SSW,210,3.0,3.0,49,0.00,,,0.00,Wunderground v.1.15,2013-06-27 01:30:00,
2013-06-26 18:35:00,83.9,62.7,29.90,SW,217,2.0,3.0,49,0.00,,,0.00,Wunderground v.1.15,2013-06-27 01:35:00,
2013-06-26 18:40:00,83.3,61.6,29.90,SW,221,3.0,3.0,48,0.00,,,0.00,Wunderground v.1.15,2013-06-27 01:40:00,
2013-06-26 18:45:00,83.2,61.5,29.90,WNW,301,3.0,3.0,48,0.00,,,0.00,Wunderground v.1.15,2013-06-27 01:45:00,
2013-06-26 18:55:00,83.1,61.4,29.90,West,262,3.0,4.0,48,0.00,,,0.00,Wunderground v.1.15,2013-06-27 01:55:00,
2013-06-26 19:00:00,83.5,61.1,29.90,NW,319,2.0,2.0,47,0.00,,,0.00,Wunderground v.1.15,2013-06-27 02:00:00,
2013-06-26 19:05:00,83.3,61.0,29.90,WSW,248,2.0,2.0,47,0.00,,,0.00,Wunderground v.1.15,2013-06-27 02:05:00,
2013-06-26 19:15:00,82.4,60.7,29.90,West,265,3.0,3.0,48,0.00,,,0.00,Wunderground v.1.15,2013-06-27 02:15:00,
2013-06-26 19:20:00,82.5,60.2,29.90,SSW,204,2.0,3.0,47,0.00,,,0.00,Wunderground v.1.15,2013-06-27 02:20:00,
2013-06-26 19:25:00,81.9,59.7,29.91,NW,314,2.0,2.0,47,0.00,,,0.00,Wunderground v.1.15,2013-06-27 02:25:00,
2013-06-26 19:30:00,81.4,59.2,29.91,SW,217,3.0,3.0,47,0.00,,,0.00,Wunderground v.1.15,2013-06-27 02:30:00,
2013-06-26 19:35:00,80.9,58.8,29.91,West,272,2.0,2.0,47,0.00,,,0.00,Wunderground v.1.15,2013-06-27 02:35:00,
2013-06-26 19:40:00,80.1,59.2,29.91,WSW,247,2.0,2.0,49,0.00,,,0.00,Wunderground v.1.15,2013-06-27 02:40:00,
2013-06-26 19:50:00,78.8,59.1,29.91,WNW,290,3.0,3.0,51,0.00,,,0.00,Wunderground v.1.15,2013-06-27 02:50:00,
2013-06-26 19:55:00,78.3,59.2,29.91,WNW,295,2.0,2.0,52,0.00,,,0.00,Wunderground v.1.15,2013-06-27 02:55:00,
2013-06-26 20:00:00,77.9,59.4,29.91,West,274,2.0,2.0,53,0.00,,,0.00,Wunderground v.1.15,2013-06-27 03:00:00,
2013-06-26 20:05:00,77.5,59.0,29.91,SSE,150,2.0,2.0,53,0.00,,,0.00,Wunderground v.1.15,2013-06-27 03:05:00,
2013-06-26 20:15:00,77.1,59.2,29.91,West,268,2.0,2.0,54,0.00,,,0.00,Wunderground v.1.15,2013-06-27 03:15:00,
2013-06-26 20:20:00,76.4,59.0,29.91,NW,310,1.0,2.0,55,0.00,,,0.00,Wunderground v.1.15,2013-06-27 03:20:00,
2013-06-26 20:25:00,76.3,58.9,29.91,West,281,1.0,1.0,55,0.00,,,0.00,Wunderground v.1.15,2013-06-27 03:25:00,
2013-06-26 20:35:00,75.9,58.6,29.91,NW,318,1.0,1.0,55,0.00,,,0.00,Wunderground v.1.15,2013-06-27 03:35:00,
2013-06-26 20:40:00,75.5,58.7,29.91,NW,323,1.0,1.0,56,0.00,,,0.00,Wunderground v.1.15,2013-06-27 03:40:00,
2013-06-26 20:45:00,75.2,58.9,29.91,NNE,32,1.0,1.0,57,0.00,,,0.00,Wunderground v.1.15,2013-06-27 03:45:00,
2013-06-26 20:50:00,74.4,58.7,29.91,NNW,342,0.0,1.0,58,0.00,,,0.00,Wunderground v.1.15,2013-06-27 03:50:00,
2013-06-26 20:55:00,73.8,58.6,29.91,NNW,342,0.0,1.0,59,0.00,,,0.00,Wunderground v.1.15,2013-06-27 03:55:00,
2013-06-26 21:00:00,73.3,58.6,29.91,NNE,24,0.0,0.0,60,0.00,,,0.00,Wunderground v.1.15,2013-06-27 04:00:00,
2013-06-26 21:05:00,72.9,58.2,29.91,NNE,25,0.0,1.0,60,0.00,,,0.00,Wunderground v.1.15,2013-06-27 04:05:00,
2013-06-26 21:15:00,73.2,58.9,29.91,NW,314,1.0,1.0,61,0.00,,,0.00,Wunderground v.1.15,2013-06-27 04:15:00,
2013-06-26 21:20:00,73.2,58.9,29.91,West,266,0.0,1.0,61,0.00,,,0.00,Wunderground v.1.15,2013-06-27 04:20:00,
2013-06-26 21:25:00,73.2,58.9,29.91,WNW,298,1.0,1.0,61,0.00,,,0.00,Wunderground v.1.15,2013-06-27 04:25:00,
2013-06-26 21:30:00,72.9,59.1,29.92,WNW,303,1.0,1.0,62,0.00,,,0.00,Wunderground v.1.15,2013-06-27 04:30:00,
2013-06-26 21:35:00,72.7,59.8,29.92,NW,316,0.0,0.0,64,0.00,,,0.00,Wunderground v.1.15,2013-06-27 04:35:00,
2013-06-26 21:40:00,72.7,59.8,29.92,West,263,1.0,1.0,64,0.00,,,0.00,Wunderground v.1.15,2013-06-27 04:40:00,
2013-06-26 21:45:00,72.6,60.2,29.92,NW,323,1.0,1.0,65,0.00,,,0.00,Wunderground v.1.15,2013-06-27 04:45:00,
2013-06-26 21:50:00,72.6,60.2,29.92,NW,309,1.0,1.0,65,0.00,,,0.00,Wunderground v.1.15,2013-06-27 04:50:00,
2013-06-26 21:55:00,72.4,60.4,29.92,WNW,300,1.0,1.0,66,0.00,,,0.00,Wunderground v.1.15,2013-06-27 04:55:00,
2013-06-26 22:00:00,72.4,60.4,29.93,West,275,1.0,1.0,66,0.00,,,0.00,Wunderground v.1.15,2013-06-27 05:00:00,
2013-06-26 22:05:00,72.2,60.6,29.93,SW,226,1.0,1.0,67,0.00,,,0.00,Wunderground v.1.15,2013-06-27 05:05:00,
2013-06-26 22:15:00,71.4,60.7,29.93,NW,326,0.0,1.0,69,0.00,,,0.00,Wunderground v.1.15,2013-06-27 05:15:00,
2013-06-26 22:20:00,70.7,60.0,29.93,NW,326,0.0,0.0,69,0.00,,,0.00,Wunderground v.1.15,2013-06-27 05:20:00,
2013-06-26 22:25:00,70.1,60.3,29.93,NW,326,0.0,1.0,71,0.00,,,0.00,Wunderground v.1.15,2013-06-27 05:25:00,
2013-06-26 22:30:00,69.6,60.2,29.93,NW,326,0.0,1.0,72,0.00,,,0.00,Wunderground v.1.15,2013-06-27 05:30:00,
2013-06-26 22:40:00,69.6,60.2,29.94,NW,319,1.0,1.0,72,0.00,,,0.00,Wunderground v.1.15,2013-06-27 05:40:00,
2013-06-26 22:45:00,69.0,60.0,29.94,NW,319,0.0,1.0,73,0.00,,,0.00,Wunderground v.1.15,2013-06-27 05:45:00,
2013-06-26 22:50:00,68.3,60.1,29.94,NW,319,0.0,0.0,75,0.00,,,0.00,Wunderground v.1.15,2013-06-27 05:50:00,
2013-06-26 22:55:00,68.1,60.2,29.94,WSW,244,0.0,0.0,76,0.00,,,0.00,Wunderground v.1.15,2013-06-27 05:55:00,
2013-06-26 23:00:00,68.6,60.4,29.94,WSW,257,0.0,0.0,75,0.00,,,0.00,Wunderground v.1.15,2013-06-27 06:00:00,
2013-06-26 23:05:00,69.1,60.5,29.94,SW,233,0.0,1.0,74,0.00,,,0.00,Wunderground v.1.15,2013-06-27 06:05:00,
2013-06-26 23:15:00,68.8,60.6,29.94,West,276,0.0,0.0,75,0.00,,,0.00,Wunderground v.1.15,2013-06-27 06:15:00,
2013-06-26 23:20:00,68.7,60.5,29.94,West,273,0.0,0.0,75,0.00,,,0.00,Wunderground v.1.15,2013-06-27 06:20:00,
2013-06-26 23:25:00,68.7,60.5,29.94,SW,217,1.0,1.0,75,0.00,,,0.00,Wunderground v.1.15,2013-06-27 06:25:00,
2013-06-26 23:30:00,68.8,60.9,29.94,West,280,1.0,1.0,76,0.00,,,0.00,Wunderground v.1.15,2013-06-27 06:30:00,
2013-06-26 23:35:00,68.7,60.8,29.94,WSW,250,1.0,1.0,76,0.00,,,0.00,Wunderground v.1.15,2013-06-27 06:35:00,
2013-06-26 23:45:00,68.6,60.7,29.94,West,269,1.0,1.0,76,0.00,,,0.00,Wunderground v.1.15,2013-06-27 06:45:00,
2013-06-26 23:50:00,68.4,60.9,29.94,SSE,163,1.0,1.0,77,0.00,,,0.00,Wunderground v.1.15,2013-06-27 06:50:00,
2013-06-26 23:55:00,68.4,60.9,29.95,WSW,249,1.0,1.0,77,0.00,,,0.00,Wunderground v.1.15,2013-06-27 06:55:00,